When you browse on this site, cookies collect data to enhance your experience and personalize the content and advertising you see.
Visit our Privacy Policy to learn more. By continuing to use the site, you agree to this use of cookies and data.
  • In Lithuania
  • List of Countries
  • For 7 days
  • Water Temperature
  • Satellite Maps
  • Weather Map
  • Weather Widgets
  • user-avatar
    Login

    Hourly Weather San Luis

    Today, 20 April, Saturday

    Time Temperature Precipitation Wind Pressure Humidity
    00:00 +21°C° 0 mm 5 mps 698 mmHg 62%
    01:00 +20°C° 0 mm 5 mps 698 mmHg 65%
    02:00 +20°C° 0 mm 5 mps 699 mmHg 68%
    03:00 +20°C° 0.1 mm 6 mps 699 mmHg 69%
    04:00 +19°C° 0.1 mm 6 mps 699 mmHg 69%
    05:00 +18°C° 0.1 mm 7 mps 699 mmHg 70%
    06:00 +18°C° 0 mm 7 mps 699 mmHg 60%
    07:00 +18°C° 0 mm 7 mps 700 mmHg 49%
    08:00 +18°C° 0 mm 8 mps 700 mmHg 39%
    09:00 +21°C° 0 mm 8 mps 701 mmHg 34%
    10:00 +23°C° 0 mm 9 mps 701 mmHg 29%
    11:00 +24°C° 0 mm 9 mps 702 mmHg 23%
    12:00 +24°C° 0 mm 9 mps 701 mmHg 24%
    13:00 +26°C° 0 mm 9 mps 701 mmHg 25%
    14:00 +26°C° 0 mm 9 mps 700 mmHg 25%
    15:00 +24°C° 0 mm 9 mps 700 mmHg 28%
    16:00 +23°C° 0 mm 9 mps 700 mmHg 30%
    17:00 +21°C° 0 mm 9 mps 699 mmHg 33%
    18:00 +19°C° 0 mm 9 mps 699 mmHg 37%
    19:00 +18°C° 0 mm 8 mps 699 mmHg 41%
    20:00 +17°C° 0 mm 7 mps 700 mmHg 45%
    21:00 +17°C° 0 mm 7 mps 700 mmHg 46%
    22:00 +16°C° 0 mm 7 mps 700 mmHg 47%
    23:00 +16°C° 0 mm 7 mps 700 mmHg 48%

    Tomorrow, 21 April, Sunday

    Time Temperature Precipitation Wind Pressure Humidity
    00:00 +16°C° 0 mm 6 mps 700 mmHg 49%
    01:00 +16°C° 0 mm 5 mps 700 mmHg 50%
    02:00 +15°C° 0 mm 5 mps 700 mmHg 52%
    03:00 +15°C° 0 mm 4 mps 699 mmHg 54%
    04:00 +15°C° 0 mm 4 mps 699 mmHg 56%
    05:00 +14°C° 0 mm 3 mps 699 mmHg 58%
    06:00 +16°C° 0 mm 3 mps 699 mmHg 56%
    07:00 +16°C° 0 mm 3 mps 700 mmHg 54%
    08:00 +17°C° 0 mm 3 mps 700 mmHg 53%
    09:00 +19°C° 0 mm 3 mps 701 mmHg 49%
    10:00 +21°C° 0 mm 3 mps 701 mmHg 45%
    11:00 +22°C° 0 mm 3 mps 702 mmHg 41%
    12:00 +24°C° 0 mm 3 mps 701 mmHg 40%
    13:00 +24°C° 0 mm 3 mps 701 mmHg 40%
    14:00 +25°C° 0 mm 3 mps 701 mmHg 39%
    15:00 +24°C° 0 mm 3 mps 700 mmHg 40%
    16:00 +23°C° 0 mm 4 mps 700 mmHg 41%
    17:00 +22°C° 0 mm 4 mps 700 mmHg 42%
    18:00 +21°C° 0 mm 5 mps 700 mmHg 47%
    19:00 +19°C° 0 mm 5 mps 700 mmHg 53%
    20:00 +16°C° 0 mm 6 mps 700 mmHg 58%
    21:00 +15°C° 0 mm 5 mps 700 mmHg 61%
    22:00 +15°C° 0 mm 4 mps 701 mmHg 65%
    23:00 +15°C° 0 mm 4 mps 701 mmHg 68%

    Day after tomorrow, 22 April, Monday

    Time Temperature Precipitation Wind Pressure Humidity
    00:00 +16°C° 0.1 mm 3 mps 701 mmHg 73%
    01:00 +14°C° 0.1 mm 3 mps 701 mmHg 77%
    02:00 +14°C° 0.1 mm 3 mps 700 mmHg 82%
    03:00 +14°C° 0 mm 3 mps 700 mmHg 83%
    04:00 +14°C° 0 mm 3 mps 700 mmHg 85%
    05:00 +14°C° 0 mm 3 mps 700 mmHg 87%
    06:00 +14°C° 0 mm 3 mps 700 mmHg 83%
    07:00 +15°C° 0 mm 4 mps 701 mmHg 80%
    08:00 +15°C° 0 mm 4 mps 701 mmHg 76%
    09:00 +18°C° 0.1 mm 4 mps 701 mmHg 68%
    10:00 +20°C° 0.1 mm 4 mps 702 mmHg 60%
    11:00 +21°C° 0.1 mm 4 mps 702 mmHg 52%
    12:00 +22°C° 1.1 mm 3 mps 701 mmHg 51%
    13:00 +22°C° 1.1 mm 3 mps 701 mmHg 50%
    14:00 +22°C° 1.1 mm 3 mps 700 mmHg 48%
    15:00 +22°C° 0.6 mm 3 mps 700 mmHg 50%
    16:00 +21°C° 0.6 mm 2 mps 700 mmHg 52%
    17:00 +21°C° 0.6 mm 2 mps 699 mmHg 54%
    18:00 +19°C° 0 mm 2 mps 699 mmHg 59%
    19:00 +18°C° 0 mm 2 mps 700 mmHg 64%
    20:00 +16°C° 0 mm 2 mps 700 mmHg 70%
    21:00 +16°C° 0 mm 2 mps 700 mmHg 69%
    22:00 +16°C° 0 mm 3 mps 700 mmHg 69%
    23:00 +16°C° 0 mm 3 mps 701 mmHg 69%

    23 April, Tuesday

    Time Temperature Precipitation Wind Pressure Humidity
    00:00 +16°C° 0 mm 3 mps 700 mmHg 70%
    01:00 +15°C° 0 mm 4 mps 700 mmHg 71%
    02:00 +14°C° 0 mm 4 mps 700 mmHg 73%
    03:00 +14°C° 0 mm 5 mps 700 mmHg 71%
    04:00 +14°C° 0 mm 5 mps 700 mmHg 69%
    05:00 +14°C° 0 mm 5 mps 700 mmHg 66%
    06:00 +14°C° 0 mm 5 mps 700 mmHg 63%
    07:00 +15°C° 0 mm 5 mps 700 mmHg 60%
    08:00 +15°C° 0 mm 5 mps 701 mmHg 57%
    09:00 +17°C° 0 mm 5 mps 701 mmHg 51%
    10:00 +20°C° 0 mm 5 mps 701 mmHg 45%
    11:00 +22°C° 0 mm 4 mps 702 mmHg 39%
    12:00 +23°C° 0 mm 4 mps 701 mmHg 38%
    13:00 +24°C° 0 mm 3 mps 701 mmHg 36%
    14:00 +25°C° 0 mm 2 mps 700 mmHg 35%
    15:00 +25°C° 0 mm 2 mps 700 mmHg 36%
    16:00 +24°C° 0 mm 2 mps 700 mmHg 36%
    17:00 +24°C° 0 mm 2 mps 699 mmHg 37%
    18:00 +21°C° 0 mm 2 mps 699 mmHg 42%
    19:00 +19°C° 0 mm 2 mps 700 mmHg 47%
    20:00 +17°C° 0 mm 2 mps 700 mmHg 52%
    21:00 +17°C° 0 mm 2 mps 700 mmHg 52%
    22:00 +17°C° 0 mm 3 mps 701 mmHg 52%
    23:00 +17°C° 0 mm 3 mps 701 mmHg 52%

    24 April, Wednesday

    Time Temperature Precipitation Wind Pressure Humidity
    00:00 +17°C° 0 mm 3 mps 701 mmHg 55%
    01:00 +17°C° 0 mm 4 mps 701 mmHg 58%
    02:00 +15°C° 0 mm 4 mps 700 mmHg 60%
    03:00 +15°C° 0 mm 4 mps 700 mmHg 60%
    04:00 +15°C° 0 mm 4 mps 700 mmHg 60%
    05:00 +16°C° 0 mm 3 mps 700 mmHg 61%
    06:00 +17°C° 0 mm 3 mps 701 mmHg 59%
    07:00 +17°C° 0 mm 3 mps 701 mmHg 58%
    08:00 +17°C° 0 mm 2 mps 702 mmHg 57%
    09:00 +19°C° 0.1 mm 2 mps 702 mmHg 53%
    10:00 +20°C° 0.1 mm 2 mps 702 mmHg 49%
    11:00 +21°C° 0.1 mm 2 mps 703 mmHg 46%
    12:00 +21°C° 0 mm 2 mps 702 mmHg 45%
    13:00 +21°C° 0 mm 2 mps 702 mmHg 45%
    14:00 +23°C° 0 mm 2 mps 701 mmHg 44%
    15:00 +23°C° 0 mm 1 mps 701 mmHg 45%
    16:00 +23°C° 0 mm 1 mps 701 mmHg 45%
    17:00 +23°C° 0 mm 1 mps 701 mmHg 46%
    18:00 +20°C° 0 mm 2 mps 701 mmHg 54%
    19:00 +18°C° 0 mm 2 mps 701 mmHg 62%
    20:00 +16°C° 0 mm 2 mps 701 mmHg 70%
    21:00 +16°C° 0 mm 2 mps 701 mmHg 70%
    22:00 +16°C° 0 mm 2 mps 701 mmHg 70%
    23:00 +16°C° 0 mm 2 mps 701 mmHg 70%

    25 April, Thursday

    Time Temperature Precipitation Wind Pressure Humidity
    00:00 +16°C° 0 mm 2 mps 701 mmHg 72%
    01:00 +16°C° 0 mm 2 mps 701 mmHg 73%
    02:00 +14°C° 0 mm 3 mps 701 mmHg 75%
    03:00 +14°C° 0 mm 3 mps 701 mmHg 77%
    04:00 +14°C° 0 mm 3 mps 700 mmHg 79%
    05:00 +14°C° 0 mm 3 mps 700 mmHg 81%
    06:00 +14°C° 0 mm 3 mps 700 mmHg 78%
    07:00 +16°C° 0 mm 3 mps 701 mmHg 76%
    08:00 +17°C° 0 mm 3 mps 701 mmHg 73%
    09:00 +19°C° 0 mm 3 mps 701 mmHg 64%
    10:00 +20°C° 0 mm 3 mps 701 mmHg 55%
    11:00 +22°C° 0 mm 3 mps 701 mmHg 47%
    12:00 +24°C° 0.2 mm 3 mps 701 mmHg 45%
    13:00 +24°C° 0.2 mm 2 mps 700 mmHg 44%
    14:00 +24°C° 0.2 mm 2 mps 699 mmHg 43%
    15:00 +24°C° 0.4 mm 2 mps 699 mmHg 44%
    16:00 +24°C° 0.4 mm 2 mps 699 mmHg 45%
    17:00 +23°C° 0.4 mm 2 mps 699 mmHg 47%
    18:00 +20°C° 0 mm 2 mps 699 mmHg 56%
    19:00 +18°C° 0 mm 2 mps 699 mmHg 65%
    20:00 +17°C° 0 mm 2 mps 699 mmHg 73%
    21:00 +16°C° 0 mm 2 mps 699 mmHg 74%
    22:00 +16°C° 0 mm 2 mps 699 mmHg 75%
    23:00 +16°C° 0 mm 2 mps 699 mmHg 75%
    Show more